Location: Sorocaba
(23.4830°S, 47.4500°W)
Time: 10:09:56
(UTC-03:00)

Envisat - Visible Passes

Search period start: 20 May 2022 00:00
Search period end: 30 May 2022 00:00
Orbit: 764 x 765 km, 98.2° (Epoch: 19 May)

Date Brightness Start Highest point End Pass type
(mag) Time Alt. Az. Time Alt. Az. Time Alt. Az.
20 May 5.2 04:12:52 10° N 04:13:47 16° N 04:13:47 16° N visible
22 May 5.1 04:38:20 10° N 04:39:12 15° NNW 04:39:12 15° NNW visible
23 May 5.4 04:01:10 10° NNE 04:01:49 14° NNE 04:01:49 14° NNE visible
23 May 6.0 18:01:47 10° SW 18:03:07 11° WSW 18:04:26 10° W visible
24 May 5.2 05:04:30 10° NNW 05:04:37 10° NW 05:04:37 10° NW visible
25 May 5.2 04:26:23 10° N 04:27:14 15° N 04:27:14 15° N visible
26 May 5.7 03:49:34 10° NNE 03:49:51 11° NNE 03:49:51 11° NNE visible
27 May 5.2 04:52:12 10° NNW 04:52:39 12° NNW 04:52:39 12° NNW visible
28 May 5.3 04:14:32 10° N 04:15:15 14° N 04:15:15 14° N visible
